Location: ?????
(42.2640°N, 43.4211°E)
Time: 14:46:12
(UTC+00:00)

Cosmos 2298 Rocket - Pass Details

Date: 07 August 2020
Orbit: 776 x 784 km, 74.0° (Epoch: 19 September)

Event Time Altitude Azimuth Distance (km) Brightness Sun altitude
Exits shadow 01:16:32 - 209° (SSW) 2,574 6.2 -8.9°
Reaches altitude 10° 01:17:12 10° 210° (SSW) 2,325 6.0 -8.8°
Maximum altitude 01:22:26 64° 292° (WNW) 864 4.1 -7.9°
Drops below altitude 10° 01:27:44 10° 14° (NNE) 2,346 7.2 -7.1°
Sets 01:30:10 0° 18° (NNE) 3,279 8.1 -6.7°
